Location: Oberwangen
(47.4286°N, 8.9679°E)
Time: 11:11:39
(UTC+00:00)

Cosmos 1816 Rocket - Pass Details

Date: 22 October 2021
Orbit: 952 x 998 km, 82.9° (Epoch: 08 December)

Event Time Altitude Azimuth Distance (km) Brightness Sun altitude
Rises 19:14:04 0° 353° (N) 3,647 7.8 -29.4°
Reaches altitude 10° 19:16:36 10° 356° (N) 2,701 7.0 -29.8°
Enters shadow 19:20:42 42° 13° (NNE) 1,339 5.1 -30.4°
